Year,Month,Day,Hour,Minute,Value (Times are PST for temperature in C)
2019,05,27,04,47,11.20
2019,05,27,04,48,11.20
2019,05,27,04,49,11.20
2019,05,27,04,50,11.20
2019,05,27,04,51,11.20
2019,05,27,04,52,11.20
2019,05,27,04,53,11.20
2019,05,27,04,54,11.20
2019,05,27,04,55,11.20
2019,05,27,04,56,11.20
2019,05,27,04,57,11.20
2019,05,27,04,58,11.20
2019,05,27,04,59,11.20
2019,05,27,05,00,11.20
2019,05,27,05,01,11.20
2019,05,27,05,02,11.20
2019,05,27,05,03,11.20
2019,05,27,05,04,11.20
2019,05,27,05,05,11.20
2019,05,27,05,06,11.10
2019,05,27,05,07,11.10
2019,05,27,05,08,11.10
2019,05,27,05,09,11.10
2019,05,27,05,10,11.10
2019,05,27,05,11,11.10
2019,05,27,05,12,11.10
2019,05,27,05,13,11.10
2019,05,27,05,14,11.10
2019,05,27,05,15,11.10
2019,05,27,05,16,11.10
2019,05,27,05,17,11.10
2019,05,27,05,18,11.10
2019,05,27,05,19,11.10
2019,05,27,05,20,11.10
2019,05,27,05,21,11.10
2019,05,27,05,22,11.10
2019,05,27,05,23,11.10
2019,05,27,05,24,11.10
2019,05,27,05,25,11.10
2019,05,27,05,26,11.10
2019,05,27,05,27,11.10
2019,05,27,05,28,11.00
2019,05,27,05,29,11.00
2019,05,27,05,30,10.90
2019,05,27,05,31,10.90
2019,05,27,05,32,10.90
2019,05,27,05,33,10.90
2019,05,27,05,34,10.90
2019,05,27,05,35,10.90
2019,05,27,05,36,10.90
2019,05,27,05,37,10.90
2019,05,27,05,38,11.00
2019,05,27,05,39,11.00
2019,05,27,05,40,11.00
2019,05,27,05,41,11.10
2019,05,27,05,42,11.10
2019,05,27,05,43,11.10
2019,05,27,05,44,11.20
2019,05,27,05,45,11.20
2019,05,27,05,46,11.20
2019,05,27,05,47,11.20
2019,05,27,05,48,11.20
2019,05,27,05,49,11.20
2019,05,27,05,50,11.20
2019,05,27,05,51,11.20
2019,05,27,05,52,11.20
2019,05,27,05,53,11.20
2019,05,27,05,54,11.20
2019,05,27,05,55,11.20
2019,05,27,05,56,11.20
2019,05,27,05,57,11.20
2019,05,27,05,58,11.20
2019,05,27,05,59,11.20
2019,05,27,07,59,13.60
2019,05,27,08,00,13.70
2019,05,27,08,01,13.80
2019,05,27,08,02,13.80
2019,05,27,08,03,13.80
2019,05,27,08,04,13.90
2019,05,27,08,05,13.90
2019,05,27,08,06,13.90
2019,05,27,08,07,13.90
2019,05,27,08,08,14.00
2019,05,27,08,09,14.00
2019,05,27,08,10,14.00
2019,05,27,08,11,14.00
2019,05,27,08,12,14.00
2019,05,27,08,13,14.00
2019,05,27,08,14,14.00
2019,05,27,08,15,14.10
2019,05,27,08,16,14.10
2019,05,27,08,17,14.10
2019,05,27,08,18,14.10
2019,05,27,08,19,14.00
2019,05,27,08,20,14.00
2019,05,27,08,21,14.00
2019,05,27,08,22,14.00
2019,05,27,08,23,14.00
2019,05,27,08,24,13.90
2019,05,27,08,25,14.00
2019,05,27,08,26,14.00
2019,05,27,08,27,14.10
2019,05,27,08,28,14.20
2019,05,27,08,29,14.20
2019,05,27,08,30,14.20
2019,05,27,08,31,14.30
2019,05,27,08,32,14.30
2019,05,27,08,33,14.30
2019,05,27,08,34,14.30
2019,05,27,08,35,14.30
2019,05,27,08,36,14.30
2019,05,27,08,37,14.30
2019,05,27,08,38,14.40
2019,05,27,08,39,14.40
2019,05,27,08,40,14.40
2019,05,27,08,41,14.40
2019,05,27,08,42,14.30
2019,05,27,08,43,14.30
2019,05,27,08,44,14.30
2019,05,27,08,45,14.30
2019,05,27,08,46,14.30
2019,05,27,08,47,14.30
2019,05,27,08,48,14.20
2019,05,27,08,49,14.20
2019,05,27,08,50,14.20
2019,05,27,08,51,14.20
2019,05,27,08,52,14.20
2019,05,27,08,53,14.20
2019,05,27,08,54,14.20
2019,05,27,08,55,14.30
2019,05,27,08,56,14.30
2019,05,27,08,57,14.40
2019,05,27,08,58,14.40
2019,05,27,08,59,14.40
2019,05,27,09,00,14.40
2019,05,27,09,01,14.50
2019,05,27,09,02,14.50
2019,05,27,09,03,14.50
2019,05,27,09,04,14.60
2019,05,27,09,05,14.60
2019,05,27,09,06,14.60
2019,05,27,09,07,14.60
2019,05,27,09,08,14.60
2019,05,27,09,09,14.60
2019,05,27,09,10,14.70
2019,05,27,09,11,14.70
2019,05,27,09,12,14.70
2019,05,27,09,13,14.70
2019,05,27,09,14,14.70
2019,05,27,09,15,14.70
2019,05,27,09,16,14.80
2019,05,27,09,17,14.80
2019,05,27,09,18,14.80
2019,05,27,09,19,14.80
2019,05,27,09,20,14.90
2019,05,27,09,21,14.90
2019,05,27,09,22,15.00
2019,05,27,09,23,15.00
2019,05,27,09,24,15.10
2019,05,27,09,25,15.10
2019,05,27,09,26,15.10
2019,05,27,09,27,15.30
2019,05,27,09,28,15.30
2019,05,27,09,29,15.40
2019,05,27,09,30,15.40
2019,05,27,09,31,15.50
2019,05,27,09,32,15.50
2019,05,27,09,33,15.60
2019,05,27,09,34,15.60
2019,05,27,09,35,15.50
2019,05,27,09,36,15.50
2019,05,27,09,37,15.50
2019,05,27,09,38,15.40
2019,05,27,09,39,15.50
2019,05,27,09,40,15.50
2019,05,27,09,41,15.50
2019,05,27,09,42,15.50
2019,05,27,09,43,15.50
2019,05,27,09,44,15.50
2019,05,27,09,45,15.60
2019,05,27,09,46,15.50
2019,05,27,09,47,15.40
2019,05,27,09,48,15.40
2019,05,27,09,49,15.30
2019,05,27,09,50,15.30
2019,05,27,09,51,15.30
2019,05,27,09,52,15.30
2019,05,27,09,53,15.30
2019,05,27,09,54,15.30
2019,05,27,09,55,15.30
2019,05,27,09,56,15.30
2019,05,27,09,57,15.40
2019,05,27,09,58,15.40
2019,05,27,09,59,15.40
2019,05,27,10,00,15.40
2019,05,27,10,01,15.40
2019,05,27,10,02,15.40
2019,05,27,10,03,15.40
2019,05,27,10,04,15.40
2019,05,27,10,05,15.40
2019,05,27,10,06,15.40
2019,05,27,10,07,15.40
2019,05,27,10,08,15.80
2019,05,27,10,09,16.10
2019,05,27,10,10,16.10
2019,05,27,10,11,16.10
2019,05,27,10,12,16.10
2019,05,27,10,13,16.20
2019,05,27,10,14,16.20
2019,05,27,10,15,16.30
2019,05,27,10,16,16.30
2019,05,27,10,17,16.30
2019,05,27,10,18,16.30
2019,05,27,10,19,16.30
2019,05,27,10,20,16.30
2019,05,27,10,21,16.30
2019,05,27,10,22,16.20
2019,05,27,10,23,16.20
2019,05,27,10,24,16.10
2019,05,27,10,25,16.10
2019,05,27,10,26,16.10
2019,05,27,10,27,16.20
2019,05,27,10,28,16.20
2019,05,27,10,29,16.20
2019,05,27,10,30,16.20
2019,05,27,10,31,16.20
2019,05,27,10,32,16.10
2019,05,27,10,33,16.10
2019,05,27,10,34,16.10
2019,05,27,10,35,16.10
2019,05,27,10,36,16.10
2019,05,27,10,37,16.10
2019,05,27,10,38,16.10
2019,05,27,10,39,16.20
2019,05,27,10,40,16.20
2019,05,27,10,41,16.30
2019,05,27,10,42,16.30
2019,05,27,10,43,16.40
2019,05,27,10,44,16.40
2019,05,27,10,45,16.50
2019,05,27,10,46,16.60
2019,05,27,10,47,16.60
2019,05,27,10,48,16.60
2019,05,27,10,49,16.70
2019,05,27,10,50,16.80
2019,05,27,10,51,16.80
2019,05,27,10,52,16.90
2019,05,27,10,53,16.90
2019,05,27,10,54,17.00
2019,05,27,10,55,17.00
2019,05,27,10,56,17.10
2019,05,27,10,57,17.10
2019,05,27,10,58,17.10
2019,05,27,10,59,17.10
2019,05,27,11,00,17.10
2019,05,27,11,01,17.10
2019,05,27,11,02,17.10
2019,05,27,11,03,17.20
2019,05,27,11,04,17.20
2019,05,27,11,05,17.20
2019,05,27,11,06,17.10
2019,05,27,11,07,17.10
2019,05,27,11,08,17.00
2019,05,27,11,09,17.00
2019,05,27,11,10,16.90
2019,05,27,11,11,16.80
2019,05,27,11,12,16.80
2019,05,27,11,13,16.70
2019,05,27,11,14,16.70
2019,05,27,11,15,16.70
2019,05,27,11,16,16.60
2019,05,27,11,17,16.60
2019,05,27,11,18,16.60
2019,05,27,11,19,16.50
2019,05,27,11,20,16.50
2019,05,27,11,21,16.50
2019,05,27,11,22,16.50
2019,05,27,11,23,16.60
2019,05,27,11,24,16.70
2019,05,27,11,25,16.80
2019,05,27,11,26,16.80
2019,05,27,11,27,16.90
2019,05,27,11,28,17.00
2019,05,27,11,29,17.20
2019,05,27,11,30,17.30
2019,05,27,11,31,17.40
2019,05,27,11,32,17.60
2019,05,27,11,33,17.70
2019,05,27,11,34,17.80
2019,05,27,11,35,17.80
2019,05,27,11,36,17.90
2019,05,27,11,37,17.90
2019,05,27,11,38,18.00
2019,05,27,11,39,18.10
2019,05,27,11,40,18.20
2019,05,27,11,41,18.30
2019,05,27,11,42,18.30
2019,05,27,11,43,18.40
2019,05,27,11,44,18.50
2019,05,27,11,45,18.60
2019,05,27,11,46,18.60
2019,05,27,11,47,18.70
2019,05,27,11,48,18.80
2019,05,27,11,49,18.80
2019,05,27,11,50,18.80
2019,05,27,11,51,18.80
2019,05,27,11,52,18.70
2019,05,27,11,53,18.70
2019,05,27,11,54,18.70
2019,05,27,11,55,18.70
2019,05,27,11,56,18.80
2019,05,27,11,57,18.90
2019,05,27,11,58,19.00
2019,05,27,11,59,19.00
2019,05,27,12,00,19.00
2019,05,27,12,01,19.00
2019,05,27,12,02,18.90
2019,05,27,12,03,18.90
2019,05,27,12,04,18.90
2019,05,27,12,05,18.90
2019,05,27,12,06,18.90
2019,05,27,12,07,18.90
2019,05,27,12,08,18.80
2019,05,27,12,09,18.70
2019,05,27,12,10,18.70
2019,05,27,12,11,18.60
2019,05,27,12,12,18.60
2019,05,27,12,13,18.60
2019,05,27,12,14,18.50
2019,05,27,12,15,18.40
2019,05,27,12,16,18.40
2019,05,27,12,17,18.40
2019,05,27,12,18,18.30
2019,05,27,12,19,18.30
2019,05,27,12,20,18.30
2019,05,27,12,21,18.30
2019,05,27,12,22,18.40
2019,05,27,12,23,18.40
2019,05,27,12,24,18.50
2019,05,27,12,25,18.60
2019,05,27,12,26,18.70
2019,05,27,12,27,18.70
2019,05,27,12,28,18.70
2019,05,27,12,29,18.80
2019,05,27,12,30,18.80
2019,05,27,12,31,18.80
2019,05,27,12,32,18.80
2019,05,27,12,33,18.80
2019,05,27,12,34,18.80
2019,05,27,12,35,18.80
2019,05,27,12,36,18.80
2019,05,27,12,37,18.80
2019,05,27,12,38,18.90
2019,05,27,12,39,18.90
2019,05,27,12,40,18.80
2019,05,27,12,41,18.90
2019,05,27,12,42,18.90
2019,05,27,12,43,18.90
2019,05,27,12,44,19.00
2019,05,27,12,45,19.10
2019,05,27,12,46,19.20
2019,05,27,12,47,19.30
2019,05,27,12,48,19.40
2019,05,27,12,49,19.50
2019,05,27,12,50,19.50
2019,05,27,12,51,19.70
2019,05,27,12,52,19.80
2019,05,27,12,53,19.80
2019,05,27,12,54,19.80
2019,05,27,12,55,19.80
2019,05,27,12,56,19.90
2019,05,27,12,57,19.90
2019,05,27,12,58,19.90
2019,05,27,12,59,20.00
2019,05,27,13,00,20.10
2019,05,27,13,01,20.10
2019,05,27,13,02,20.20
2019,05,27,13,03,20.20
2019,05,27,13,04,20.20
2019,05,27,13,05,20.30
2019,05,27,13,06,20.40
2019,05,27,13,07,20.50
2019,05,27,13,08,20.60
2019,05,27,13,09,20.70
2019,05,27,13,10,20.70
2019,05,27,13,11,20.80
2019,05,27,13,12,20.80
2019,05,27,13,13,20.80
2019,05,27,13,14,20.80
2019,05,27,13,15,20.70
2019,05,27,13,16,20.70
2019,05,27,13,17,20.70
2019,05,27,13,18,20.70
2019,05,27,13,19,20.70
2019,05,27,13,20,20.70
2019,05,27,13,21,20.70
2019,05,27,13,22,20.70
2019,05,27,13,23,20.70
2019,05,27,13,24,20.70
2019,05,27,13,25,20.70
